Weather History for Carmi, IL

Change the Weather History Date:

Thursday, March 15, 2012

  Actual Average (KEVV) Record (KEVV)
Temperature  
Mean Temperature 69 °F 46 °F  
Max Temperature 75 °F 56 °F 81 °F (1995)
Min Temperature 63 °F 35 °F 19 °F (1969)
Degree Days  
Heating Degree Days 0 19  
Month to date heating degree days 325  
Since 1 July heating degree days 3899  
Cooling Degree Days 4 0  
Month to date cooling degree days 0  
Year to date cooling degree days 0  
Growing Degree Days 19 (Base 50)    
Moisture  
Dew Point 62 °F    
Average Humidity 80    
Maximum Humidity 90    
Minimum Humidity 64    
Precipitation  
Precipitation 0.05 in 0.13 in 1.93 in (1984)
Month to date precipitation 1.89  
Year to date precipitation 8.16  
Snow  
Snow 0.00 in 0.00 in 0.70 in (1949)
Month to date snowfall 0.7  
Since 1 July snowfall 11.4  
Snow Depth -    
Sea Level Pressure  
Sea Level Pressure 30.11 in    
Wind  
Wind Speed 10 mph (SSW)    
Max Wind Speed 20 mph    
Max Gust Speed 23 mph    
Visibility 10 miles    
Events Rain , Thunderstorm    
T = Trace of Precipitation, MM = Missing Value Source: NWS Daily Summary

Daily Weather History Graph

Daily Weather History Graph

Search for Another Location

Airport:

Trip Planner

Search our weather history database for the weather conditions in past years. The results will help you decide how hot, cold, wet, or windy it might be!

Date:

Astronomy

Mar. 15, 2012 Rise Set
Actual Time 7:02 AM CDT 7:00 PM CDT
Civil Twilight 6:36 AM CDT 7:26 PM CDT
Nautical Twilight 6:06 AM CDT 7:57 PM CDT
Astronomical Twilight 5:35 AM CDT 8:28 PM CDT
Moon 2:24 AM CDT (3/15) 12:22 PM CDT (3/15)
Length of Visible Light 12h 49m
Length of Day
11h 57m
Last Quarter, 43% of the Moon is Illuminated
Mar 15
Last Quarter
Mar 22
New
Mar 30
First Quarter
Apr 6
Full
Apr 13
Last Quarter

Hourly Weather History & Observations

Time (CDT) Temp. Dew Point Humidity Pressure Visibility Wind Dir Wind Speed Gust Speed Precip Events Conditions
12:15 AM 70.7 °F 62.1 °F 74% 30.08 in 10.0 mi SSW 15.0 mph 20.7 mph N/A   Clear
12:35 AM 70.3 °F 62.2 °F 75% 30.08 in 10.0 mi SSW 13.8 mph - N/A   Clear
12:55 AM 69.8 °F 62.6 °F 78% 30.08 in 10.0 mi SSW 16.1 mph 19.6 mph N/A   Clear
1:15 AM 69.3 °F 62.4 °F 79% 30.09 in 10.0 mi SSW 13.8 mph 19.6 mph N/A   Clear
1:35 AM 68.9 °F 62.6 °F 80% 30.09 in 10.0 mi SSW 13.8 mph - N/A   Clear
2:15 AM 68.2 °F 62.2 °F 81% 30.10 in 10.0 mi SW 13.8 mph 17.3 mph N/A   Clear
2:35 AM 68.2 °F 62.1 °F 81% 30.10 in 10.0 mi SSW 12.7 mph - N/A   Scattered Clouds
2:55 AM 68.0 °F 62.1 °F 81% 30.09 in 10.0 mi SSW 11.5 mph 19.6 mph N/A   Scattered Clouds
3:15 AM 67.5 °F 61.9 °F 82% 30.10 in 10.0 mi SSW 10.4 mph - N/A   Clear
3:35 AM 66.6 °F 61.7 °F 84% 30.10 in 10.0 mi SSW 8.1 mph - N/A   Clear
3:55 AM 66.2 °F 61.5 °F 85% 30.10 in 10.0 mi SSW 8.1 mph - N/A   Clear
4:15 AM 65.7 °F 61.3 °F 86% 30.10 in 10.0 mi SSW 6.9 mph - N/A   Clear
4:35 AM 65.3 °F 61.2 °F 86% 30.10 in 10.0 mi SSW 9.2 mph - N/A   Clear
4:55 AM 64.8 °F 61.2 °F 88% 30.10 in 10.0 mi SSW 9.2 mph - N/A   Clear
5:15 AM 64.8 °F 61.0 °F 88% 30.10 in 10.0 mi SSW 8.1 mph - N/A   Clear
5:35 AM 64.6 °F 61.0 °F 88% 30.11 in 10.0 mi SSW 8.1 mph - N/A   Clear
5:55 AM 64.4 °F 61.0 °F 89% 30.12 in 10.0 mi SSW 9.2 mph - N/A   Clear
6:15 AM 64.4 °F 61.0 °F 89% 30.12 in 10.0 mi SSW 10.4 mph - N/A   Clear
6:35 AM 64.4 °F 61.0 °F 89% 30.13 in 10.0 mi SSW 10.4 mph - N/A   Clear
6:55 AM 64.4 °F 60.8 °F 88% 30.13 in 10.0 mi SSW 10.4 mph - N/A   Clear
7:15 AM 63.7 °F 60.8 °F 90% 30.14 in 10.0 mi SSW 9.2 mph - N/A   Clear
7:35 AM 64.2 °F 60.8 °F 89% 30.15 in 7.0 mi SSW 9.2 mph - N/A   Clear
7:55 AM 64.6 °F 61.3 °F 89% 30.15 in 7.0 mi SSW 10.4 mph - N/A   Scattered Clouds
8:15 AM 65.3 °F 61.7 °F 88% 30.16 in 7.0 mi SSW 10.4 mph - N/A   Overcast
8:35 AM 65.3 °F 61.7 °F 88% 30.16 in 7.0 mi SSW 10.4 mph - N/A   Scattered Clouds
8:55 AM 67.6 °F 62.4 °F 83% 30.15 in 10.0 mi South 10.4 mph - N/A   Clear
9:15 AM 68.7 °F 62.6 °F 81% 30.15 in 10.0 mi South 10.4 mph - N/A   Clear
9:35 AM 69.8 °F 62.6 °F 78% 30.15 in 7.0 mi South 10.4 mph - N/A   Clear
9:55 AM 70.9 °F 63.0 °F 76% 30.15 in 10.0 mi South 12.7 mph - N/A   Clear
10:15 AM 72.5 °F 63.3 °F 73% 30.15 in 10.0 mi SSW 10.4 mph - N/A Thunderstorm Clear
10:35 AM 73.8 °F 63.1 °F 69% 30.16 in 10.0 mi SW 11.5 mph - N/A Thunderstorm Clear
10:55 AM 75.4 °F 63.3 °F 66% 30.15 in 10.0 mi SW 12.7 mph - N/A   Clear
11:15 AM 75.6 °F 62.8 °F 64% 30.14 in 10.0 mi SSW 11.5 mph - N/A Thunderstorm Clear
11:35 AM 75.7 °F 63.3 °F 65% 30.14 in 10.0 mi SSW 11.5 mph 17.3 mph N/A Thunderstorm Clear
11:55 AM 74.7 °F 63.1 °F 67% 30.14 in 10.0 mi SW 12.7 mph - N/A Thunderstorm Thunderstorm
12:15 PM 74.3 °F 63.1 °F 68% 30.14 in 10.0 mi SW 19.6 mph 23.0 mph N/A Thunderstorm Scattered Clouds
12:35 PM 68.9 °F 63.5 °F 83% 30.13 in 7.0 mi SW 10.4 mph - 0.03 in Rain , Thunderstorm Light Thunderstorms and Rain
12:55 PM 67.8 °F 63.1 °F 85% 30.15 in 10.0 mi WSW 4.6 mph - 0.03 in Thunderstorm Unknown
1:15 PM 67.5 °F 63.5 °F 87% 30.15 in 7.0 mi SW 5.8 mph - N/A Rain , Thunderstorm Heavy Thunderstorms and Rain
1:35 PM 67.5 °F 62.6 °F 84% 30.14 in 10.0 mi WSW 4.6 mph - 0.01 in Rain , Thunderstorm Light Thunderstorms and Rain
1:55 PM 67.3 °F 61.3 °F 81% 30.13 in 10.0 mi WSW 9.2 mph - 0.02 in Rain Light Rain
2:15 PM 67.5 °F 61.0 °F 80% 30.14 in 10.0 mi West 9.2 mph - N/A Rain Light Rain
2:35 PM 66.6 °F 61.7 °F 84% 30.13 in 10.0 mi WNW 4.6 mph - N/A   Scattered Clouds
2:55 PM 66.4 °F 61.9 °F 85% 30.11 in 10.0 mi Calm Calm - N/A   Clear
3:15 PM 66.9 °F 61.9 °F 84% 30.11 in 10.0 mi Calm Calm - N/A   Clear
3:35 PM 67.1 °F 61.7 °F 83% 30.08 in 10.0 mi Calm Calm - N/A   Clear
3:55 PM 68.0 °F 61.0 °F 78% 30.07 in 7.0 mi Calm Calm - N/A Thunderstorm Clear
4:15 PM 68.0 °F 61.0 °F 78% 30.06 in 7.0 mi Calm Calm - N/A   Clear
4:35 PM 68.7 °F 59.7 °F 73% 30.07 in 10.0 mi Calm Calm - N/A   Clear
4:55 PM 68.9 °F 60.6 °F 75% 30.07 in 10.0 mi Calm Calm - N/A   Clear
5:15 PM 69.3 °F 59.2 °F 70% 30.07 in 7.0 mi South 4.6 mph - N/A   Clear
5:35 PM 68.7 °F 59.9 °F 73% 30.08 in 10.0 mi Calm Calm - N/A   Mostly Cloudy
5:55 PM 68.9 °F 60.4 °F 74% 30.07 in 10.0 mi SSE 4.6 mph - N/A   Mostly Cloudy
6:15 PM 67.8 °F 59.0 °F 73% 30.09 in 10.0 mi South 5.8 mph - N/A   Scattered Clouds
6:35 PM 66.4 °F 60.4 °F 81% 30.08 in 10.0 mi SSE 8.1 mph - N/A   Mostly Cloudy
6:55 PM 65.3 °F 60.8 °F 85% 30.09 in 10.0 mi SSE 8.1 mph - N/A   Mostly Cloudy
7:15 PM 63.9 °F 58.3 °F 82% 30.09 in 10.0 mi SSE 6.9 mph - N/A   Scattered Clouds
7:35 PM 62.8 °F 57.7 °F 84% 30.09 in 10.0 mi SSE 5.8 mph - N/A   Clear
7:55 PM 61.9 °F 57.7 °F 86% 30.08 in 10.0 mi SSE 6.9 mph - N/A   Clear
8:15 PM 61.9 °F 57.2 °F 85% 30.08 in 10.0 mi SSE 6.9 mph - N/A   Clear
8:35 PM 60.4 °F 56.5 °F 87% 30.08 in 10.0 mi South 4.6 mph - N/A   Clear
8:55 PM 59.9 °F 56.5 °F 88% 30.10 in 10.0 mi South 8.1 mph - N/A   Clear
9:15 PM 59.9 °F 56.3 °F 88% 30.10 in 10.0 mi South 8.1 mph - N/A   Clear
9:35 PM 60.1 °F 56.5 °F 88% 30.10 in 10.0 mi South 4.6 mph - N/A   Clear
9:55 PM 59.0 °F 56.3 °F 91% 30.11 in 10.0 mi South 4.6 mph - N/A   Scattered Clouds
10:15 PM 58.3 °F 55.9 °F 92% 30.11 in 10.0 mi SSE 4.6 mph - N/A   Scattered Clouds
10:35 PM 57.9 °F 55.8 °F 92% 30.11 in 10.0 mi South 5.8 mph - N/A   Clear
10:55 PM 57.2 °F 55.4 °F 94% 30.12 in 10.0 mi South 5.8 mph - N/A Thunderstorm Clear
11:15 PM 59.4 °F 56.7 °F 91% 30.13 in 10.0 mi SSW 5.8 mph - N/A   Clear
11:35 PM 61.3 °F 57.4 °F 87% 30.13 in 10.0 mi SW 12.7 mph - N/A Thunderstorm Thunderstorm
11:55 PM 62.1 °F 57.6 °F 85% 30.10 in 10.0 mi SW 11.5 mph - N/A   Clear